Simultaneous Nadir Overpasses (SNOs) Predictions

Prediction of SNOs between LANDSAT-8 and METOP-B Satellite Orbit:

Table of predicted SNOs for the next 14.0 days since TLE Epoch: 1/17/2014
Index Date (LANDSAT-8) Time (LANDSAT-8) Lat,Lon (LANDSAT-8) SZA (LANDSAT-8 ) Date (METOP-B) Time (METOP-B) Lat,Lon (METOP-B) SZA (METOP-B ) Distance(km) Time Diff (sec)
1 01/20/2014 09:36:16 -81.06,-105.28 77.25 01/20/2014 09:35:39 -81.06,-105.36 77.27 1.47 37
2 01/20/2014 10:25:41 81.09, 62.87 102.82 01/20/2014 10:26:17 81.10, 63.05 102.85 3.20 36
3 01/23/2014 05:10:37 -81.08, -38.55 77.86 01/23/2014 05:10:00 -81.07, -38.64 77.89 1.80 37
4 01/23/2014 06:00:03 81.09, 129.24 102.16 01/23/2014 06:00:39 81.10, 129.42 102.20 3.20 36
5 01/26/2014 00:45:03 -81.07, 27.73 78.57 01/26/2014 00:44:22 -81.07, 27.68 78.59 0.91 41
6 01/26/2014 01:34:29 81.08,-164.49 101.45 01/26/2014 01:35:02 81.08,-164.62 101.45 2.33 33
7 01/28/2014 20:19:32 -81.06, 93.90 79.34 01/28/2014 20:18:43 -81.06, 93.96 79.35 1.21 49
8 01/28/2014 21:08:57 81.09, -97.96 100.73 01/28/2014 21:09:22 81.09, -97.95 100.74 0.15 25
9 01/31/2014 15:54:05 -81.06, 160.32 80.11 01/31/2014 15:53:05 -81.06, 160.20 80.14 2.16 60




NCC Satellite Simultaneous Nadir Overpasses (SNOs) Prediction Service
